EW5212 Weather Reports


time (UTC)temp
C
wind
direction
speed
KPH
gust
KPH
rain 1hr
cm
rain 24hr
cm
rain mn
cm
humidity
%
barometer
mb
20260506114016 18 293 3.2 12.9 0.00 0.00 0.00 77 1012.5
20260506113036 18 68 1.6 6.4 0.00 0.00 0.00 77 1012.4
20260506112016 18 0.0 3.2 0.00 0.00 0.00 77 1012.5
20260506110016 18 90 3.2 8.0 0.00 0.00 0.00 77 1012.3
20260506105016 18 293 1.6 8.0 0.00 0.00 0.00 77 1012.4
20260506104016 17 68 3.2 11.3 0.00 0.00 0.00 77 1012.4
20260506103015 18 68 1.6 11.3 0.00 0.00 0.00 77 1012.6
20260506102015 18 68 1.6 4.8 0.00 0.00 0.00 77 1012.7
20260506101016 18 90 1.6 6.4 0.00 0.00 0.00 77 1012.5
20260506100016 18 293 1.6 8.0 0.00 0.00 0.00 77 1012.6
20260506095016 18 90 1.6 4.8 0.00 0.00 0.00 78 1012.5
20260506094016 18 293 1.6 9.7 0.00 0.00 0.00 78 1012.5
20260506093016 18 45 3.2 11.3 0.00 0.00 0.00 78 1012.4
20260506092016 18 113 1.6 9.7 0.00 0.00 0.00 78 1012.4
20260506091035 18 68 3.2 11.3 0.00 0.00 0.00 78 1012.4
20260506090035 18 270 1.6 9.7 0.00 0.00 0.00 78 1012.5
20260506085015 18 270 1.6 11.3 0.00 0.00 0.00 78 1012.6
20260506084016 18 0.0 3.2 0.00 0.00 0.00 78 1012.6
20260506083016 18 293 1.6 8.0 0.00 0.00 0.00 78 1012.9
20260506082016 18 68 1.6 9.7 0.00 0.00 0.00 78 1012.9
20260506081016 18 23 1.6 4.8 0.00 0.00 0.00 77 1012.8
20260506073015 18 338 1.6 6.4 0.00 0.00 0.00 75 1013.0
20260506072015 18 270 1.6 8.0 0.00 0.00 0.00 75 1013.0
20260506071015 18 0 3.2 14.5 0.00 0.00 0.00 74 1013.1
20260506062015 19 45 3.2 12.9 0.00 0.00 0.00 73 1013.3
20260506061036 20 90 3.2 9.7 0.00 0.00 0.00 73 1013.1
20260506051015 20 68 3.2 16.1 0.00 0.00 0.00 70 1013.6
20260506045015 20 113 1.6 9.7 0.00 0.00 0.00 69 1013.8
20260506044015 21 90 1.6 8.0 0.00 0.00 0.00 67 1013.9
20260506043016 21 0 1.6 6.4 0.00 0.00 0.00 66 1013.9
20260506042015 21 338 1.6 6.4 0.00 0.00 0.00 65 1013.8
20260506041015 21 90 3.2 12.9 0.00 0.00 0.00 64 1013.8
20260506040015 21 68 3.2 11.3 0.00 0.00 0.00 63 1013.8
20260506035037 22 90 4.8 11.3 0.00 0.00 0.00 63 1013.8
20260506034017 22 90 3.2 14.5 0.00 0.00 0.00 62 1013.8
20260506033015 22 270 3.2 9.7 0.00 0.00 0.00 62 1013.9
20260506032017 22 90 3.2 11.3 0.00 0.00 0.00 61 1013.8
20260506031015 22 90 4.8 17.7 0.00 0.00 0.00 61 1013.8
20260506030017 22 0 1.6 11.3 0.00 0.00 0.00 60 1013.6
20260506025017 22 338 3.2 8.0 0.00 0.00 0.00 60 1013.7
20260506024017 22 23 1.6 6.4 0.00 0.00 0.00 59 1013.7
20260506023017 22 90 1.6 8.0 0.00 0.00 0.00 59 1013.7
20260506022017 22 293 3.2 8.0 0.00 0.00 0.00 58 1013.7
20260506021017 23 270 1.6 11.3 0.00 0.00 0.00 57 1013.6
20260506020017 23 270 1.6 9.7 0.00 0.00 0.00 57 1013.5
20260506015017 23 0 3.2 19.3 0.00 0.00 0.00 56 1013.5
20260506014037 23 113 3.2 12.9 0.00 0.00 0.00 56 1013.4
20260506013017 23 293 3.2 14.5 0.00 0.00 0.00 55 1013.3
20260506012037 23 293 1.6 8.0 0.00 0.00 0.00 54 1013.2
20260506011017 23 0 3.2 11.3 0.00 0.00 0.00 54 1013.0
20260506010016 24 315 3.2 8.0 0.00 0.00 0.00 53 1013.1
20260506005038 24 338 3.2 12.9 0.00 0.00 0.00 53 1013.0
20260506004017 24 293 1.6 6.4 0.00 0.00 0.00 52 1012.8
20260506003017 25 23 1.6 6.4 0.00 0.00 0.00 51 1012.8
20260506002017 25 113 1.6 6.4 0.00 0.00 0.00 50 1012.7
20260506001017 25 90 3.2 11.3 0.00 0.00 0.00 49 1012.6
20260506000017 25 338 3.2 8.0 0.00 0.00 0.00 49 1012.5
20260505235017 25 90 3.2 6.4 0.00 0.00 0.00 48 1012.4
20260505234017 25 90 1.6 6.4 0.00 0.00 0.00 47 1012.4
20260505233016 26 90 3.2 8.0 0.00 0.00 0.00 46 1012.4
20260505232037 26 90 1.6 4.8 0.00 0.00 0.00 45 1012.4
20260505231017 26 338 1.6 11.3 0.00 0.00 0.00 44 1012.3
20260505230017 26 90 1.6 6.4 0.00 0.00 0.00 43 1012.4
20260505225017 27 270 1.6 6.4 0.00 0.00 0.00 40 1012.4
20260505224036 27 270 3.2 11.3 0.00 0.00 0.00 39 1012.4
20260505223017 27 0 4.8 14.5 0.00 0.00 0.00 39 1012.4
20260505222017 27 90 3.2 9.7 0.00 0.00 0.00 39 1012.4
20260505221017 27 270 4.8 19.3 0.00 0.00 0.00 37 1012.5
20260505220017 28 338 3.2 12.9 0.00 0.00 0.00 37 1012.3
20260505215017 28 293 3.2 11.3 0.00 0.00 0.00 36 1012.3
20260505214016 27 293 4.8 17.7 0.00 0.00 0.00 36 1012.3
20260505213016 28 270 9.7 22.5 0.00 0.00 0.00 34 1012.3
20260505212016 28 0 4.8 12.9 0.00 0.00 0.00 35 1012.1
20260505211017 28 0 6.4 16.1 0.00 0.00 0.00 35 1012.2
20260505210017 28 90 6.4 22.5 0.00 0.00 0.00 35 1012.3
20260505205017 28 315 4.8 16.1 0.00 0.00 0.00 35 1012.4
20260505204017 28 270 4.8 16.1 0.00 0.00 0.00 35 1012.1
20260505203016 29 293 8.0 20.9 0.00 0.00 0.00 34 1012.1
20260505202016 30 270 4.8 11.3 0.00 0.00 0.00 34 1012.2
20260505201016 29 270 6.4 20.9 0.00 0.00 0.00 33 1012.4
20260505200017 30 293 6.4 12.9 0.00 0.00 0.00 33 1012.5
20260505195016 30 68 8.0 32.2 0.00 0.00 0.00 32 1012.7
20260505194016 30 45 4.8 16.1 0.00 0.00 0.00 35 1012.7
20260505193016 30 293 3.2 11.3 0.00 0.00 0.00 35 1012.8
20260505192016 30 293 6.4 29.0 0.00 0.00 0.00 33 1013.0
20260505191036 30 23 4.8 16.1 0.00 0.00 0.00 33 1013.0
20260505190036 30 90 4.8 14.5 0.00 0.00 0.00 33 1013.3
20260505185016 30 0 4.8 16.1 0.00 0.00 0.00 34 1013.2
20260505184016 30 45 3.2 8.0 0.00 0.00 0.00 33 1013.5
20260505183036 30 270 4.8 20.9 0.00 0.00 0.00 35 1013.3
20260505182016 29 315 6.4 25.7 0.00 0.00 0.00 34 1013.7
20260505181016 29 113 4.8 11.3 0.00 0.00 0.00 35 1013.7
20260505180017 29 293 4.8 12.9 0.00 0.00 0.00 36 1013.8
20260505175016 28 270 4.8 14.5 0.00 0.00 0.00 40 1013.9
20260505174016 28 23 4.8 16.1 0.00 0.00 0.00 39 1014.1
20260505173036 28 270 4.8 11.3 0.00 0.00 0.00 41 1014.0
20260505172016 28 90 3.2 19.3 0.00 0.00 0.00 42 1014.1
20260505171036 28 270 3.2 9.7 0.00 0.00 0.00 43 1014.2
20260505170056 28 68 4.8 11.3 0.00 0.00 0.00 43 1014.4
20260505165016 28 270 3.2 11.3 0.00 0.00 0.00 43 1014.4
20260505164016 28 45 3.2 9.7 0.00 0.00 0.00 43 1014.5
20260505163016 28 293 3.2 8.0 0.00 0.00 0.00 44 1014.6
20260505162016 27 45 3.2 8.0 0.00 0.00 0.00 45 1014.8
20260505161016 27 90 4.8 11.3 0.00 0.00 0.00 47 1015.0
20260505153016 26 90 3.2 8.0 0.00 0.00 0.00 50 1015.5
20260505152016 26 23 1.6 9.7 0.00 0.00 0.00 51 1015.5
20260505151016 25 90 3.2 11.3 0.00 0.00 0.00 52 1015.4
20260505125016 17 270 1.6 9.7 0.00 0.00 0.00 71 1015.4
20260505124016 17 270 3.2 8.0 0.00 0.00 0.00 73 1015.4
20260505123017 16 270 1.6 6.4 0.00 0.00 0.00 74 1015.5
20260505122016 16 270 1.6 8.0 0.00 0.00 0.00 74 1015.4
20260505121016 16 293 3.2 12.9 0.00 0.00 0.00 75 1015.3
20260505120017 16 293 1.6 8.0 0.00 0.00 0.00 75 1015.3
20260505115016 16 315 1.6 4.8 0.00 0.00 0.00 76 1015.2